Precipitable_Water
0.07 0.07 0.07 0.07 0.07 0.08 0.08 0.08 0.08 0.08 0.08 0.08 0.08 0.08 0.08 0.07 0.07 0.06 0.07 0.07 0.07 0.08 0.08 0.08 0.09 0.11 0.12 0.13 0.13 0.13 0.13 0.14 0.15 0.15 0.16 0.17 0.18 0.19 0.20 0.21 0.23 0.26 0.28 0.28 0.28 0.29 0.30 0.31 0.30 0.29 0.31 0.32 0.33 0.34 0.36 0.36 0.37 0.36 0.33 0.32 0.33 0.36 0.43 0.49 0.50 0.52 0.54 0.56 0.56 0.56 0.55 0.54 0.52 0.51
0.06 0.06 0.06 0.06 0.06 0.07 0.07 0.07 0.07 0.07 0.07 0.07 0.08 0.08 0.08 0.08 0.07 0.07 0.07 0.06 0.08 0.08 0.08 0.09 0.08 0.09 0.09 0.10 0.10 0.11 0.12 0.12 0.13 0.15 0.15 0.15 0.16 0.17 0.18 0.19 0.21 0.22 0.24 0.27 0.28 0.27 0.28 0.29 0.30 0.30 0.31 0.32 0.34 0.33 0.37 0.39 0.40 0.42 0.42 0.43 0.41 0.37 0.31 0.34 0.42 0.46 0.48 0.50 0.51 0.52 0.52 0.52 0.51 0.50
0.06 0.06 0.06 0.06 0.06 0.06 0.06 0.06 0.06 0.06 0.07 0.07 0.07 0.07 0.07 0.07 0.07 0.07 0.07 0.06 0.06 0.08 0.07 0.08 0.09 0.08 0.08 0.09 0.09 0.09 0.09 0.10 0.11 0.12 0.13 0.14 0.15 0.16 0.17 0.17 0.18 0.20 0.21 0.22 0.25 0.27 0.26 0.26 0.28 0.28 0.28 0.30 0.33 0.33 0.35 0.38 0.42 0.44 0.46 0.46 0.46 0.46 0.45 0.41 0.36 0.39 0.43 0.45 0.46 0.47 0.48 0.48 0.48 0.47
0.06 0.06 0.05 0.06 0.06 0.06 0.06 0.06 0.06 0.06 0.06 0.06 0.06 0.06 0.07 0.07 0.07 0.07 0.07 0.06 0.06 0.07 0.07 0.07 0.07 0.08 0.08 0.08 0.08 0.08 0.08 0.08 0.09 0.09 0.10 0.11 0.12 0.13 0.14 0.15 0.16 0.18 0.19 0.20 0.21 0.24 0.27 0.27 0.27 0.28 0.27 0.28 0.28 0.31 0.34 0.35 0.40 0.44 0.44 0.47 0.48 0.49 0.48 0.48 0.47 0.44 0.40 0.39 0.41 0.44 0.45 0.45 0.44 0.44
0.06 0.06 0.05 0.05 0.06 0.06 0.05 0.05 0.05 0.06 0.06 0.06 0.06 0.06 0.06 0.06 0.06 0.06 0.06 0.05 0.05 0.06 0.07 0.07 0.06 0.07 0.07 0.07 0.07 0.07 0.07 0.07 0.07 0.08 0.08 0.08 0.09 0.10 0.11 0.12 0.14 0.16 0.18 0.19 0.19 0.20 0.23 0.27 0.28 0.27 0.28 0.28 0.28 0.28 0.31 0.34 0.37 0.40 0.43 0.45 0.49 0.47 0.49 0.50 0.50 0.49 0.46 0.43 0.40 0.39 0.40 0.41 0.41 0.41
0.06 0.06 0.05 0.05 0.06 0.06 0.06 0.06 0.06 0.06 0.06 0.06 0.06 0.06 0.06 0.06 0.05 0.06 0.06 0.05 0.05 0.05 0.05 0.06 0.06 0.06 0.07 0.06 0.07 0.07 0.07 0.07 0.07 0.07 0.07 0.07 0.07 0.08 0.09 0.10 0.11 0.13 0.16 0.18 0.19 0.20 0.20 0.24 0.26 0.27 0.27 0.26 0.26 0.25 0.27 0.30 0.33 0.38 0.42 0.43 0.46 0.47 0.47 0.50 0.50 0.49 0.48 0.47 0.44 0.43 0.41 0.39 0.37 0.38
0.06 0.05 0.05 0.05 0.05 0.06 0.05 0.05 0.05 0.06 0.06 0.06 0.06 0.06 0.06 0.06 0.06 0.06 0.06 0.05 0.05 0.05 0.05 0.05 0.05 0.05 0.06 0.06 0.06 0.07 0.09 0.09 0.09 0.08 0.08 0.08 0.07 0.07 0.07 0.07 0.09 0.11 0.13 0.17 0.19 0.20 0.20 0.21 0.24 0.26 0.26 0.26 0.26 0.26 0.23 0.25 0.29 0.33 0.37 0.40 0.42 0.45 0.46 0.46 0.48 0.49 0.49 0.48 0.47 0.46 0.43 0.42 0.41 0.40
0.05 0.05 0.05 0.05 0.05 0.05 0.05 0.05 0.05 0.06 0.06 0.06 0.06 0.06 0.06 0.06 0.06 0.06 0.06 0.06 0.06 0.05 0.05 0.05 0.05 0.05 0.05 0.06 0.06 0.07 0.07 0.07 0.07 0.07 0.08 0.09 0.09 0.08 0.08 0.07 0.07 0.08 0.10 0.13 0.17 0.19 0.19 0.20 0.21 0.23 0.25 0.25 0.25 0.25 0.24 0.23 0.24 0.26 0.32 0.36 0.38 0.41 0.43 0.44 0.46 0.48 0.48 0.48 0.47 0.47 0.45 0.44 0.42 0.41
0.06 0.05 0.05 0.05 0.06 0.06 0.05 0.05 0.05 0.06 0.05 0.06 0.06 0.06 0.06 0.06 0.06 0.06 0.06 0.06 0.06 0.06 0.05 0.05 0.06 0.06 0.06 0.06 0.06 0.06 0.06 0.06 0.05 0.05 0.05 0.06 0.07 0.08 0.09 0.09 0.08 0.08 0.09 0.11 0.14 0.18 0.19 0.19 0.20 0.21 0.23 0.24 0.25 0.24 0.24 0.22 0.24 0.25 0.27 0.31 0.35 0.38 0.40 0.42 0.44 0.45 0.45 0.46 0.45 0.45 0.44 0.42 0.42 0.42
0.06 0.06 0.06 0.06 0.06 0.05 0.05 0.05 0.05 0.05 0.05 0.05 0.06 0.05 0.06 0.06 0.06 0.06 0.06 0.06 0.06 0.06 0.06 0.06 0.05 0.06 0.06 0.06 0.06 0.06 0.06 0.06 0.06 0.06 0.06 0.06 0.06 0.06 0.07 0.08 0.09 0.08 0.07 0.07 0.10 0.12 0.14 0.16 0.18 0.20 0.21 0.23 0.23 0.24 0.24 0.22 0.23 0.24 0.25 0.27 0.31 0.35 0.38 0.40 0.41 0.42 0.43 0.42 0.42 0.42 0.41 0.41 0.40 0.39
0.06 0.06 0.06 0.06 0.06 0.06 0.06 0.06 0.06 0.06 0.06 0.06 0.06 0.06 0.06 0.06 0.06 0.06 0.06 0.06 0.06 0.06 0.06 0.06 0.06 0.06 0.06 0.06 0.06 0.06 0.06 0.06 0.06 0.06 0.05 0.05 0.05 0.05 0.05 0.06 0.08 0.09 0.08 0.07 0.08 0.10 0.13 0.15 0.15 0.15 0.18 0.20 0.21 0.23 0.23 0.22 0.22 0.25 0.24 0.25 0.26 0.32 0.36 0.37 0.39 0.40 0.40 0.39 0.39 0.38 0.38 0.38 0.37 0.36
0.06 0.06 0.06 0.06 0.06 0.06 0.06 0.06 0.06 0.06 0.06 0.06 0.06 0.06 0.06 0.06 0.06 0.06 0.06 0.06 0.06 0.06 0.06 0.06 0.06 0.06 0.06 0.06 0.06 0.06 0.06 0.06 0.06 0.06 0.06 0.05 0.05 0.05 0.05 0.05 0.06 0.08 0.08 0.08 0.08 0.08 0.10 0.13 0.15 0.16 0.17 0.18 0.19 0.21 0.22 0.21 0.22 0.25 0.26 0.25 0.24 0.26 0.32 0.35 0.37 0.37 0.37 0.37 0.36 0.36 0.37 0.37 0.36 0.34
0.07 0.07 0.07 0.07 0.07 0.07 0.06 0.06 0.06 0.06 0.06 0.06 0.06 0.06 0.06 0.06 0.06 0.06 0.06 0.06 0.06 0.06 0.06 0.06 0.06 0.06 0.06 0.06 0.06 0.06 0.06 0.05 0.05 0.06 0.06 0.06 0.06 0.06 0.06 0.06 0.07 0.09 0.10 0.10 0.09 0.08 0.10 0.11 0.13 0.15 0.15 0.17 0.17 0.18 0.20 0.19 0.18 0.21 0.25 0.26 0.25 0.24 0.27 0.31 0.34 0.35 0.35 0.34 0.34 0.34 0.35 0.35 0.34 0.33
0.07 0.07 0.07 0.07 0.07 0.07 0.07 0.07 0.07 0.07 0.07 0.07 0.07 0.07 0.07 0.07 0.07 0.06 0.06 0.06 0.06 0.06 0.06 0.06 0.06 0.06 0.06 0.06 0.06 0.06 0.06 0.06 0.07 0.07 0.06 0.06 0.06 0.06 0.06 0.06 0.06 0.05 0.07 0.08 0.09 0.10 0.09 0.10 0.13 0.15 0.15 0.17 0.18 0.18 0.19 0.18 0.17 0.18 0.23 0.26 0.26 0.25 0.23 0.25 0.29 0.31 0.32 0.32 0.32 0.32 0.32 0.32 0.32 0.32
0.07 0.07 0.07 0.07 0.07 0.07 0.07 0.07 0.07 0.07 0.08 0.08 0.08 0.08 0.08 0.08 0.08 0.07 0.07 0.07 0.07 0.06 0.06 0.06 0.06 0.06 0.06 0.06 0.06 0.07 0.07 0.07 0.07 0.07 0.07 0.06 0.06 0.06 0.06 0.05 0.05 0.06 0.06 0.08 0.09 0.10 0.11 0.10 0.10 0.12 0.15 0.16 0.17 0.18 0.18 0.17 0.16 0.16 0.20 0.24 0.25 0.25 0.25 0.24 0.24 0.25 0.28 0.29 0.29 0.29 0.29 0.30 0.29 0.29
0.07 0.07 0.07 0.07 0.07 0.08 0.08 0.08 0.08 0.08 0.08 0.08 0.08 0.08 0.08 0.08 0.09 0.09 0.08 0.08 0.07 0.07 0.07 0.07 0.07 0.07 0.07 0.07 0.07 0.07 0.07 0.07 0.07 0.07 0.07 0.07 0.06 0.06 0.06 0.06 0.05 0.05 0.06 0.07 0.09 0.10 0.12 0.13 0.11 0.11 0.13 0.15 0.16 0.16 0.16 0.17 0.16 0.16 0.17 0.19 0.22 0.23 0.24 0.25 0.24 0.24 0.25 0.25 0.24 0.24 0.24 0.24 0.24 0.25
0.07 0.07 0.07 0.07 0.08 0.08 0.08 0.08 0.08 0.08 0.08 0.08 0.08 0.08 0.08 0.08 0.08 0.09 0.09 0.09 0.09 0.09 0.08 0.07 0.07 0.07 0.07 0.07 0.07 0.07 0.07 0.08 0.07 0.07 0.07 0.07 0.07 0.07 0.06 0.06 0.06 0.06 0.07 0.07 0.07 0.08 0.10 0.12 0.13 0.12 0.13 0.15 0.15 0.15 0.16 0.16 0.15 0.15 0.16 0.17 0.19 0.21 0.22 0.23 0.24 0.25 0.25 0.26 0.25 0.25 0.24 0.23 0.23 0.23
0.07 0.07 0.07 0.07 0.07 0.08 0.08 0.08 0.08 0.08 0.08 0.08 0.07 0.08 0.08 0.08 0.08 0.08 0.08 0.09 0.09 0.09 0.09 0.09 0.08 0.08 0.09 0.08 0.08 0.08 0.09 0.08 0.08 0.07 0.07 0.07 0.07 0.07 0.06 0.06 0.07 0.07 0.07 0.07 0.07 0.07 0.08 0.10 0.12 0.13 0.13 0.14 0.15 0.16 0.18 0.17 0.17 0.16 0.15 0.16 0.17 0.19 0.21 0.22 0.22 0.22 0.23 0.23 0.23 0.23 0.23 0.23 0.23 0.23
0.07 0.07 0.07 0.07 0.07 0.08 0.08 0.08 0.08 0.08 0.08 0.08 0.08 0.08 0.08 0.08 0.08 0.08 0.08 0.08 0.08 0.08 0.08 0.09 0.09 0.09 0.10 0.10 0.10 0.10 0.10 0.10 0.09 0.09 0.08 0.08 0.08 0.08 0.08 0.08 0.08 0.07 0.07 0.08 0.08 0.07 0.09 0.11 0.12 0.13 0.15 0.14 0.14 0.17 0.18 0.17 0.17 0.17 0.15 0.16 0.17 0.19 0.20 0.21 0.21 0.21 0.21 0.21 0.21 0.21 0.21 0.21 0.21 0.21
0.07 0.08 0.08 0.08 0.08 0.08 0.07 0.07 0.07 0.07 0.08 0.08 0.08 0.08 0.08 0.08 0.08 0.08 0.08 0.08 0.09 0.09 0.08 0.08 0.08 0.09 0.09 0.09 0.09 0.10 0.10 0.10 0.10 0.10 0.10 0.09 0.09 0.08 0.07 0.07 0.07 0.07 0.07 0.07 0.07 0.07 0.07 0.10 0.11 0.12 0.15 0.17 0.15 0.16 0.15 0.17 0.17 0.16 0.17 0.18 0.18 0.19 0.18 0.19 0.19 0.20 0.20 0.20 0.20 0.20 0.21 0.21 0.21 0.21
0.08 0.08 0.08 0.08 0.07 0.07 0.07 0.07 0.07 0.07 0.07 0.07 0.07 0.07 0.08 0.08 0.08 0.08 0.08 0.08 0.09 0.09 0.09 0.10 0.10 0.10 0.10 0.10 0.10 0.11 0.11 0.11 0.10 0.10 0.09 0.08 0.09 0.08 0.07 0.07 0.07 0.07 0.07 0.07 0.08 0.07 0.07 0.09 0.11 0.12 0.14 0.15 0.15 0.15 0.16 0.16 0.16 0.17 0.18 0.18 0.17 0.17 0.18 0.19 0.20 0.20 0.19 0.20 0.20 0.20 0.20 0.21 0.21 0.22
0.07 0.07 0.07 0.07 0.07 0.07 0.07 0.07 0.07 0.08 0.08 0.08 0.08 0.08 0.08 0.08 0.08 0.08 0.08 0.08 0.08 0.09 0.09 0.09 0.09 0.10 0.10 0.10 0.10 0.10 0.10 0.10 0.11 0.10 0.08 0.08 0.08 0.08 0.08 0.07 0.07 0.07 0.07 0.07 0.08 0.07 0.07 0.09 0.11 0.12 0.13 0.14 0.14 0.15 0.15 0.15 0.15 0.16 0.16 0.17 0.17 0.16 0.18 0.18 0.19 0.19 0.19 0.19 0.19 0.20 0.20 0.21 0.21 0.22
0.07 0.07 0.07 0.07 0.07 0.07 0.07 0.08 0.08 0.08 0.08 0.08 0.08 0.08 0.08 0.07 0.07 0.08 0.08 0.08 0.08 0.08 0.08 0.08 0.08 0.08 0.09 0.09 0.09 0.10 0.10 0.10 0.11 0.11 0.10 0.10 0.09 0.08 0.08 0.08 0.08 0.07 0.07 0.07 0.09 0.08 0.07 0.09 0.11 0.12 0.12 0.11 0.13 0.15 0.15 0.15 0.15 0.15 0.13 0.13 0.13 0.14 0.16 0.17 0.17 0.17 0.18 0.19 0.19 0.20 0.21 0.21 0.22 0.22
0.07 0.07 0.07 0.07 0.07 0.07 0.08 0.08 0.08 0.08 0.08 0.08 0.08 0.08 0.08 0.07 0.07 0.08 0.09 0.08 0.08 0.08 0.08 0.09 0.09 0.08 0.08 0.08 0.09 0.09 0.09 0.10 0.10 0.10 0.10 0.10 0.09 0.08 0.08 0.08 0.08 0.07 0.07 0.08 0.09 0.08 0.08 0.10 0.11 0.14 0.13 0.11 0.10 0.13 0.14 0.14 0.14 0.14 0.13 0.12 0.12 0.12 0.14 0.15 0.15 0.15 0.16 0.18 0.19 0.20 0.21 0.22 0.22 0.22
0.06 0.06 0.06 0.07 0.07 0.07 0.08 0.08 0.08 0.08 0.08 0.09 0.09 0.09 0.08 0.08 0.08 0.09 0.08 0.08 0.09 0.09 0.09 0.09 0.09 0.09 0.09 0.09 0.09 0.09 0.10 0.10 0.10 0.10 0.10 0.10 0.10 0.09 0.08 0.08 0.08 0.08 0.08 0.08 0.09 0.10 0.09 0.10 0.11 0.13 0.13 0.12 0.12 0.12 0.13 0.13 0.13 0.13 0.12 0.12 0.11 0.12 0.13 0.14 0.13 0.13 0.14 0.18 0.20 0.22 0.23 0.23 0.23 0.23
0.06 0.06 0.06 0.07 0.07 0.07 0.08 0.08 0.08 0.08 0.09 0.09 0.09 0.09 0.09 0.09 0.09 0.09 0.10 0.10 0.10 0.10 0.10 0.10 0.09 0.09 0.08 0.08 0.09 0.09 0.09 0.10 0.10 0.10 0.09 0.09 0.10 0.10 0.10 0.09 0.09 0.08 0.08 0.08 0.10 0.10 0.10 0.11 0.12 0.12 0.11 0.11 0.12 0.12 0.11 0.11 0.11 0.11 0.11 0.12 0.13 0.14 0.14 0.14 0.13 0.13 0.14 0.17 0.19 0.22 0.23 0.24 0.24 0.25
0.06 0.07 0.07 0.07 0.08 0.08 0.08 0.08 0.08 0.08 0.08 0.09 0.09 0.09 0.09 0.10 0.10 0.10 0.10 0.10 0.10 0.10 0.10 0.09 0.07 0.07 0.08 0.08 0.08 0.09 0.09 0.09 0.09 0.09 0.09 0.09 0.09 0.09 0.09 0.09 0.09 0.09 0.09 0.10 0.11 0.11 0.10 0.10 0.11 0.11 0.11 0.12 0.11 0.11 0.10 0.09 0.09 0.10 0.11 0.13 0.14 0.14 0.15 0.16 0.15 0.14 0.15 0.17 0.18 0.21 0.23 0.24 0.25 0.25
0.07 0.07 0.07 0.08 0.08 0.08 0.08 0.08 0.08 0.08 0.09 0.09 0.09 0.09 0.10 0.09 0.09 0.09 0.09 0.10 0.10 0.10 0.09 0.08 0.09 0.08 0.08 0.08 0.08 0.08 0.09 0.09 0.09 0.09 0.10 0.10 0.10 0.09 0.09 0.09 0.09 0.09 0.08 0.09 0.10 0.12 0.12 0.11 0.11 0.12 0.12 0.11 0.10 0.10 0.09 0.10 0.10 0.11 0.12 0.13 0.14 0.15 0.16 0.17 0.16 0.16 0.18 0.19 0.19 0.19 0.20 0.20 0.22 0.23
0.07 0.07 0.08 0.07 0.07 0.08 0.08 0.08 0.08 0.08 0.08 0.08 0.09 0.09 0.09 0.09 0.09 0.10 0.10 0.10 0.10 0.10 0.09 0.09 0.09 0.08 0.08 0.08 0.08 0.09 0.10 0.10 0.11 0.10 0.10 0.10 0.10 0.10 0.10 0.10 0.09 0.09 0.08 0.09 0.10 0.11 0.11 0.12 0.11 0.12 0.12 0.12 0.11 0.11 0.10 0.09 0.10 0.12 0.12 0.12 0.12 0.15 0.18 0.18 0.17 0.18 0.20 0.21 0.20 0.20 0.21 0.20 0.20 0.21
0.07 0.07 0.07 0.07 0.07 0.07 0.07 0.07 0.07 0.07 0.08 0.08 0.08 0.09 0.09 0.09 0.09 0.09 0.09 0.10 0.10 0.10 0.10 0.10 0.09 0.08 0.09 0.09 0.10 0.10 0.11 0.11 0.11 0.11 0.10 0.10 0.10 0.10 0.10 0.09 0.09 0.09 0.09 0.09 0.10 0.11 0.12 0.12 0.12 0.12 0.12 0.12 0.12 0.11 0.10 0.10 0.11 0.12 0.13 0.14 0.15 0.16 0.19 0.19 0.19 0.20 0.20 0.20 0.21 0.22 0.23 0.24 0.24 0.23
0.07 0.07 0.07 0.07 0.07 0.07 0.07 0.07 0.07 0.07 0.07 0.08 0.08 0.08 0.09 0.09 0.09 0.09 0.09 0.10 0.10 0.10 0.11 0.11 0.10 0.10 0.10 0.10 0.11 0.11 0.11 0.11 0.11 0.11 0.11 0.10 0.10 0.10 0.10 0.09 0.08 0.09 0.09 0.10 0.11 0.12 0.12 0.12 0.13 0.13 0.12 0.12 0.12 0.11 0.11 0.12 0.12 0.12 0.13 0.15 0.17 0.14 0.17 0.19 0.20 0.20 0.20 0.21 0.23 0.23 0.24 0.25 0.25 0.26
0.06 0.06 0.06 0.06 0.06 0.07 0.07 0.07 0.07 0.07 0.07 0.08 0.08 0.08 0.08 0.09 0.09 0.09 0.10 0.10 0.10 0.10 0.11 0.11 0.11 0.11 0.11 0.10 0.10 0.11 0.11 0.11 0.12 0.12 0.12 0.11 0.11 0.11 0.11 0.10 0.09 0.09 0.10 0.11 0.11 0.12 0.13 0.13 0.13 0.13 0.13 0.12 0.11 0.12 0.13 0.13 0.13 0.13 0.14 0.15 0.17 0.18 0.19 0.18 0.19 0.20 0.22 0.23 0.22 0.22 0.24 0.25 0.25 0.25
0.06 0.06 0.06 0.06 0.06 0.06 0.06 0.06 0.07 0.07 0.07 0.07 0.08 0.08 0.08 0.09 0.09 0.09 0.09 0.09 0.09 0.09 0.10 0.10 0.10 0.10 0.10 0.10 0.11 0.11 0.11 0.11 0.12 0.13 0.12 0.12 0.11 0.11 0.11 0.10 0.10 0.10 0.10 0.11 0.12 0.13 0.14 0.14 0.15 0.14 0.14 0.14 0.14 0.14 0.14 0.13 0.13 0.14 0.14 0.15 0.16 0.17 0.18 0.19 0.20 0.20 0.22 0.22 0.22 0.22 0.23 0.25 0.26 0.26
0.06 0.06 0.06 0.06 0.05 0.06 0.06 0.06 0.06 0.07 0.07 0.07 0.07 0.08 0.08 0.08 0.09 0.09 0.09 0.09 0.08 0.09 0.10 0.10 0.11 0.11 0.11 0.10 0.11 0.11 0.11 0.12 0.12 0.13 0.13 0.12 0.12 0.11 0.10 0.10 0.10 0.11 0.11 0.11 0.11 0.12 0.13 0.14 0.15 0.15 0.15 0.15 0.16 0.16 0.15 0.14 0.13 0.14 0.15 0.15 0.16 0.16 0.18 0.20 0.20 0.21 0.22 0.22 0.22 0.21 0.22 0.23 0.24 0.26
0.06 0.05 0.05 0.05 0.05 0.06 0.06 0.06 0.06 0.06 0.07 0.07 0.07 0.07 0.08 0.08 0.08 0.08 0.08 0.08 0.09 0.08 0.09 0.10 0.11 0.11 0.11 0.11 0.11 0.11 0.11 0.12 0.12 0.12 0.13 0.13 0.12 0.11 0.11 0.10 0.10 0.11 0.11 0.11 0.11 0.12 0.13 0.13 0.13 0.12 0.13 0.13 0.13 0.15 0.17 0.17 0.15 0.14 0.15 0.15 0.16 0.17 0.18 0.20 0.21 0.22 0.23 0.23 0.23 0.21 0.21 0.21 0.22 0.25
0.05 0.05 0.05 0.05 0.05 0.05 0.05 0.06 0.06 0.06 0.06 0.06 0.06 0.06 0.07 0.07 0.08 0.08 0.08 0.09 0.08 0.09 0.08 0.09 0.10 0.10 0.11 0.11 0.11 0.12 0.12 0.12 0.12 0.12 0.12 0.12 0.12 0.12 0.12 0.11 0.11 0.11 0.11 0.11 0.11 0.12 0.13 0.12 0.12 0.11 0.10 0.11 0.11 0.11 0.12 0.16 0.16 0.15 0.14 0.14 0.16 0.17 0.18 0.20 0.22 0.23 0.22 0.22 0.21 0.22 0.20 0.20 0.21 0.23
0.05 0.05 0.05 0.05 0.05 0.05 0.05 0.05 0.06 0.06 0.06 0.06 0.06 0.06 0.06 0.06 0.07 0.08 0.08 0.09 0.09 0.09 0.09 0.09 0.09 0.10 0.10 0.11 0.12 0.12 0.12 0.12 0.11 0.12 0.12 0.12 0.12 0.12 0.11 0.11 0.11 0.11 0.11 0.12 0.12 0.12 0.12 0.12 0.12 0.11 0.11 0.10 0.10 0.10 0.11 0.14 0.15 0.17 0.16 0.15 0.16 0.18 0.19 0.20 0.21 0.21 0.21 0.22 0.22 0.22 0.21 0.21 0.21 0.22
0.05 0.05 0.05 0.05 0.05 0.05 0.05 0.05 0.06 0.06 0.06 0.06 0.06 0.06 0.06 0.07 0.07 0.07 0.08 0.08 0.09 0.09 0.09 0.09 0.09 0.10 0.10 0.10 0.11 0.11 0.11 0.12 0.12 0.12 0.12 0.12 0.11 0.11 0.11 0.11 0.11 0.11 0.11 0.11 0.12 0.12 0.12 0.12 0.12 0.12 0.11 0.10 0.10 0.10 0.10 0.12 0.14 0.16 0.18 0.18 0.17 0.18 0.20 0.20 0.20 0.20 0.21 0.23 0.22 0.23 0.23 0.21 0.21 0.22
0.05 0.05 0.05 0.05 0.05 0.05 0.05 0.05 0.06 0.06 0.06 0.06 0.06 0.06 0.06 0.06 0.07 0.07 0.08 0.08 0.08 0.08 0.09 0.09 0.09 0.09 0.10 0.10 0.11 0.11 0.11 0.11 0.10 0.11 0.11 0.12 0.12 0.11 0.11 0.11 0.11 0.11 0.11 0.11 0.11 0.11 0.12 0.12 0.12 0.12 0.12 0.11 0.10 0.11 0.11 0.12 0.12 0.15 0.18 0.19 0.19 0.19 0.19 0.21 0.20 0.21 0.21 0.21 0.22 0.23 0.23 0.24 0.25 0.25
0.05 0.05 0.05 0.05 0.05 0.05 0.05 0.05 0.06 0.06 0.06 0.06 0.06 0.06 0.06 0.06 0.06 0.07 0.07 0.08 0.08 0.08 0.08 0.09 0.09 0.09 0.10 0.10 0.10 0.11 0.11 0.11 0.11 0.11 0.11 0.12 0.12 0.12 0.11 0.11 0.11 0.11 0.11 0.11 0.11 0.11 0.11 0.12 0.12 0.12 0.12 0.12 0.13 0.14 0.15 0.15 0.16 0.18 0.18 0.20 0.22 0.21 0.21 0.22 0.21 0.21 0.20 0.22 0.22 0.20 0.20 0.22 0.20 0.22
0.05 0.05 0.05 0.05 0.05 0.05 0.05 0.05 0.05 0.06 0.06 0.06 0.06 0.06 0.06 0.06 0.06 0.07 0.07 0.07 0.07 0.08 0.08 0.08 0.09 0.09 0.09 0.10 0.10 0.10 0.10 0.11 0.11 0.11 0.11 0.11 0.11 0.11 0.11 0.11 0.11 0.11 0.11 0.11 0.11 0.11 0.11 0.12 0.13 0.14 0.14 0.14 0.14 0.15 0.15 0.14 0.14 0.15 0.17 0.19 0.22 0.23 0.24 0.24 0.23 0.21 0.20 0.21 0.20 0.19 0.18 0.18 0.19 0.19
0.05 0.05 0.05 0.05 0.05 0.05 0.05 0.05 0.05 0.06 0.06 0.06 0.06 0.06 0.06 0.06 0.07 0.07 0.07 0.07 0.08 0.08 0.08 0.08 0.09 0.09 0.09 0.10 0.10 0.10 0.10 0.10 0.11 0.10 0.10 0.10 0.11 0.11 0.11 0.11 0.11 0.11 0.11 0.11 0.11 0.12 0.13 0.14 0.14 0.14 0.14 0.14 0.14 0.13 0.12 0.13 0.14 0.15 0.17 0.19 0.21 0.23 0.24 0.25 0.25 0.24 0.22 0.21 0.20 0.19 0.19 0.19 0.20 0.18
0.05 0.05 0.05 0.05 0.05 0.05 0.05 0.05 0.05 0.06 0.06 0.06 0.06 0.06 0.06 0.06 0.07 0.07 0.07 0.07 0.08 0.08 0.08 0.08 0.08 0.09 0.09 0.09 0.10 0.10 0.10 0.10 0.11 0.10 0.10 0.11 0.11 0.11 0.11 0.11 0.11 0.12 0.12 0.12 0.13 0.13 0.13 0.14 0.14 0.15 0.15 0.15 0.14 0.14 0.13 0.15 0.16 0.16 0.17 0.18 0.19 0.21 0.23 0.24 0.25 0.24 0.24 0.24 0.24 0.23 0.22 0.20 0.18 0.15
0.05 0.05 0.05 0.05 0.05 0.05 0.05 0.05 0.05 0.06 0.06 0.06 0.06 0.06 0.06 0.06 0.07 0.07 0.07 0.07 0.07 0.08 0.08 0.08 0.08 0.09 0.09 0.09 0.10 0.10 0.10 0.11 0.11 0.11 0.11 0.12 0.12 0.12 0.12 0.12 0.12 0.12 0.12 0.12 0.13 0.13 0.14 0.14 0.15 0.15 0.15 0.14 0.15 0.15 0.14 0.15 0.16 0.17 0.17 0.18 0.19 0.20 0.20 0.21 0.22 0.23 0.23 0.23 0.24 0.24 0.24 0.24 0.23 0.22
0.05 0.05 0.05 0.05 0.05 0.05 0.05 0.05 0.06 0.06 0.06 0.06 0.06 0.06 0.06 0.06 0.07 0.07 0.07 0.07 0.08 0.08 0.08 0.08 0.08 0.09 0.09 0.09 0.09 0.10 0.10 0.11 0.12 0.12 0.12 0.12 0.12 0.12 0.12 0.12 0.12 0.12 0.12 0.12 0.13 0.13 0.14 0.14 0.15 0.15 0.15 0.15 0.16 0.16 0.16 0.17 0.17 0.17 0.18 0.18 0.18 0.19 0.19 0.19 0.19 0.19 0.19 0.20 0.23 0.24 0.23 0.23 0.23 0.23
Wind_Speed
62 62 63 63 64 64 64 64 65 65 66 66 67 68 68 68 69 70 70 70 69 69 69 68 68 67 67 67 67 68 68 69 69 69 70 69 69 68 68 67 67 67 69 70 70 70 69 68 68 67 66 66 65 65 65 65 64 64 64 64 63 63 62 60 59 58 58 57 57 56 56 55 55 54
62 63 64 64 65 65 65 66 66 66 67 67 68 68 69 69 70 71 72 73 72 70 70 70 70 70 70 70 70 71 70 70 70 70 71 71 71 71 70 70 69 68 68 69 70 71 70 70 69 68 68 67 66 66 66 66 65 65 64 64 63 64 64 63 62 61 60 59 58 57 57 56 56 55
63 64 64 65 65 66 66 67 67 67 68 68 69 70 70 70 71 72 73 74 74 73 72 72 72 72 73 73 73 74 74 74 73 73 73 73 73 72 72 72 71 70 69 69 69 71 71 71 70 69 68 68 67 67 67 66 65 65 65 64 63 63 63 63 63 63 62 61 60 59 58 57 56 56
62 63 64 64 64 65 65 66 67 67 68 68 69 69 70 70 71 72 73 75 77 76 74 74 75 74 75 75 75 75 76 76 76 76 76 75 75 74 74 74 73 73 72 71 70 70 71 71 71 70 69 68 68 67 67 66 66 65 65 65 64 64 63 63 64 64 64 63 62 61 60 59 58 57
61 62 62 63 63 63 64 65 65 65 66 66 67 68 69 70 70 71 73 75 77 78 76 75 76 76 75 76 76 76 77 77 77 78 78 78 77 77 76 76 75 75 74 73 72 71 71 71 72 72 71 70 68 68 68 67 66 65 64 65 65 65 64 64 64 64 64 64 64 63 62 61 60 59
60 60 61 62 62 62 63 64 64 64 65 65 66 66 67 68 69 70 71 73 75 77 77 75 76 76 75 76 76 75 75 76 76 77 78 78 78 78 78 77 77 76 76 75 75 73 72 72 72 72 72 71 70 69 69 68 68 67 65 65 65 65 65 64 64 64 64 64 64 63 62 62 61 61
59 59 60 60 61 61 62 62 63 63 64 64 65 66 66 67 68 68 69 71 72 74 75 74 74 74 74 74 75 74 74 75 75 75 76 76 77 78 79 79 79 78 78 77 77 76 75 74 73 73 72 72 71 70 69 70 69 68 67 66 66 66 66 65 64 64 64 64 63 63 63 62 61 61
58 59 59 60 60 60 61 61 61 62 62 63 64 65 65 66 67 68 68 70 71 72 72 72 71 72 72 72 73 73 74 75 76 77 76 77 77 77 77 79 80 80 80 79 78 78 77 76 75 74 73 73 73 72 70 70 70 70 69 68 67 66 66 65 65 65 64 64 63 63 63 62 61 61
57 58 58 58 58 59 60 60 60 60 61 61 62 63 64 64 65 66 67 68 69 70 71 71 70 70 71 71 71 71 72 73 74 75 76 76 77 77 77 78 78 80 81 80 79 79 79 78 77 76 74 74 74 73 71 71 71 70 70 69 68 67 66 66 65 66 65 65 64 63 63 62 61 61
55 55 56 56 56 57 58 58 58 58 59 60 61 61 62 62 63 64 65 66 67 68 69 70 69 69 69 70 70 69 69 70 71 71 72 73 74 76 77 77 77 78 79 80 80 79 79 79 79 78 77 75 74 74 73 72 72 71 70 69 68 68 68 67 66 65 65 65 64 63 63 62 62 61
52 53 54 54 54 55 55 56 56 57 57 58 59 59 59 60 61 62 62 63 64 65 66 66 67 67 67 68 68 67 67 68 69 69 70 70 70 71 73 75 75 75 76 78 80 80 79 79 80 80 79 77 75 74 73 73 73 72 71 70 69 69 68 68 67 66 66 65 65 65 64 64 64 63
50 51 51 51 52 52 53 54 54 55 55 56 56 57 57 57 58 59 59 59 60 61 61 62 63 63 63 64 64 64 64 65 66 66 67 68 68 68 69 71 72 72 73 74 76 78 78 78 79 80 80 79 77 75 74 73 73 72 72 71 70 70 69 69 69 68 68 67 67 67 66 66 65 65
47 48 48 48 49 49 50 51 51 52 52 52 53 53 53 54 54 55 55 56 56 56 57 58 58 58 59 60 60 60 61 62 63 63 64 66 67 67 68 69 69 70 70 71 72 74 75 75 76 77 77 78 78 77 75 74 73 72 72 71 71 71 71 71 70 70 70 69 69 69 68 68 67 66
44 44 44 44 45 46 46 47 48 48 49 49 50 50 50 50 51 51 51 52 52 52 53 54 54 54 55 56 56 57 58 59 60 60 61 63 64 64 65 67 67 68 69 70 70 71 72 73 73 74 74 75 76 75 75 74 73 73 72 72 71 70 71 71 71 72 71 71 70 69 69 68 68 68
41 41 41 41 41 42 42 43 43 44 45 46 47 48 48 48 49 49 49 49 48 49 49 50 51 51 52 53 53 54 55 55 56 58 58 59 60 61 61 63 64 64 65 67 67 68 69 70 72 73 73 73 74 74 74 73 73 73 73 72 71 70 70 71 71 72 72 72 70 69 69 69 69 68
38 38 38 37 37 38 38 39 40 41 42 43 44 45 46 47 48 48 48 48 47 47 48 48 48 48 49 49 49 50 50 51 53 54 54 55 57 58 59 60 61 60 60 62 64 65 65 66 69 71 71 71 72 72 72 72 71 72 72 72 72 71 70 71 71 71 71 72 71 70 69 69 69 68
36 35 35 35 34 35 36 36 37 38 39 40 41 42 43 44 45 46 46 47 47 47 47 47 47 47 47 47 47 47 48 49 49 50 51 52 54 55 56 57 59 58 57 58 61 63 63 63 64 68 70 69 69 70 71 71 70 70 71 71 71 71 71 70 70 70 71 71 71 71 70 69 69 68
33 33 33 33 33 33 34 34 35 36 37 38 39 39 40 41 41 42 43 44 45 45 46 46 47 46 47 47 47 47 47 48 48 49 50 50 51 53 54 55 56 56 55 56 57 59 61 61 61 64 67 67 67 68 69 69 69 69 69 69 69 70 70 70 70 70 71 71 71 71 70 70 70 69
32 32 32 32 33 33 33 33 35 36 36 37 38 38 39 39 39 40 40 41 42 42 43 45 46 46 46 47 47 47 47 48 49 49 49 50 50 51 51 52 53 54 53 54 55 56 58 59 58 60 62 64 65 66 66 67 67 67 67 67 67 68 68 69 69 69 70 70 70 70 70 70 70 70
31 31 31 32 32 33 33 34 35 36 37 37 38 38 39 39 40 40 41 42 43 43 44 45 45 46 46 47 47 47 47 48 48 48 49 49 48 48 48 49 50 50 50 51 53 53 55 56 56 57 57 59 61 63 64 64 64 65 64 64 65 65 66 66 66 67 67 68 68 69 69 69 69 69
30 31 31 32 32 33 33 35 36 37 38 38 38 38 39 40 40 41 41 42 44 45 46 47 47 47 48 48 48 48 48 48 47 47 47 47 46 46 46 46 46 46 47 48 49 51 52 53 53 53 54 55 57 59 60 61 62 62 62 62 63 63 63 64 64 64 65 65 66 66 67 67 67 68
30 31 32 33 33 34 35 36 37 38 38 38 38 39 40 40 41 41 41 42 43 44 45 45 45 46 46 47 47 47 47 47 47 46 47 46 46 46 45 44 44 44 45 45 46 48 49 50 50 50 50 51 53 54 56 58 59 59 59 60 61 61 61 62 62 62 63 63 64 64 64 65 65 65
30 31 32 33 34 35 36 37 38 38 38 38 38 38 39 40 40 40 40 41 41 41 41 41 41 41 42 42 42 43 43 44 44 45 45 44 45 45 44 43 42 41 41 42 43 45 46 46 47 47 47 47 48 50 52 53 55 56 56 57 58 59 60 60 60 61 61 61 62 62 62 62 62 62
31 31 32 33 35 36 36 37 36 36 37 37 37 38 38 39 39 39 39 40 40 39 40 40 40 41 41 41 41 41 41 41 41 42 43 43 43 44 43 42 41 40 39 40 41 41 42 43 45 46 45 44 44 45 47 49 51 52 52 53 55 56 57 58 58 58 59 59 59 60 60 60 60 60
31 32 32 33 34 35 35 35 35 35 36 37 37 37 38 38 39 38 38 39 39 39 39 40 40 41 42 42 41 41 40 39 38 39 41 41 42 42 41 41 41 40 39 40 40 40 39 40 42 43 43 43 42 42 44 45 47 48 48 49 51 52 53 53 54 55 55 55 56 57 57 57 58 58
31 32 33 33 34 34 34 34 34 34 35 34 34 34 35 36 37 37 36 36 36 36 36 36 37 38 39 39 39 39 38 37 36 37 38 39 40 42 41 41 40 38 37 39 40 39 38 38 38 39 39 40 40 41 42 42 43 44 45 46 48 48 48 49 50 51 51 51 51 52 53 54 55 56
31 32 32 32 32 33 32 32 31 30 30 29 29 30 30 31 32 31 30 30 30 30 31 32 32 32 32 33 33 33 32 32 32 33 34 35 36 38 39 40 41 39 38 38 38 37 38 39 38 38 37 37 38 38 39 40 40 41 42 43 44 45 45 46 47 48 48 48 48 48 49 50 51 52
31 31 30 30 31 31 30 28 27 26 26 26 26 26 27 27 26 25 25 26 26 27 27 27 27 27 26 26 26 26 26 27 27 28 29 31 31 32 34 37 39 39 39 40 39 37 37 38 38 37 37 36 37 37 36 37 37 38 39 39 40 41 42 43 44 44 44 44 44 45 45 46 47 48
29 29 30 30 30 28 26 24 24 23 23 23 23 24 24 23 22 22 22 23 24 24 25 25 24 24 23 23 23 23 24 24 25 26 27 28 28 29 30 33 36 37 38 39 38 37 37 37 37 36 36 36 36 35 35 34 35 36 36 37 38 39 39 40 41 42 42 41 41 41 41 42 42 43
27 28 29 29 27 24 23 22 21 20 20 21 21 20 20 19 19 19 20 20 21 22 23 23 23 22 21 20 20 21 21 21 22 23 25 26 26 26 27 30 32 34 36 38 37 35 36 37 37 36 35 35 35 35 34 33 34 34 34 34 34 35 36 38 39 39 39 39 38 38 38 38 39 40
27 28 27 26 24 22 21 20 19 19 19 19 18 18 17 17 17 17 17 18 19 19 20 20 21 20 19 18 18 18 18 18 19 20 23 25 25 24 25 27 29 30 33 35 35 34 35 35 36 36 35 34 34 33 33 33 33 32 32 32 32 32 33 35 36 36 36 36 35 35 36 36 36 36
26 26 25 23 21 20 19 18 18 18 17 17 16 16 16 15 14 15 15 15 16 16 14 14 15 16 16 16 16 16 16 16 16 16 18 21 23 23 24 25 26 28 30 31 31 32 33 33 34 34 34 33 32 32 32 32 31 31 31 30 30 29 30 31 32 33 33 32 32 33 33 32 32 33
24 23 23 21 19 18 18 17 17 16 17 16 15 15 15 14 13 13 13 13 13 13 11 10 11 12 12 13 13 13 13 13 13 12 13 16 19 21 23 24 25 26 27 27 28 29 30 31 31 32 31 31 31 31 31 30 30 29 30 30 28 27 27 29 29 29 30 29 29 29 29 28 28 29
22 22 21 20 18 18 17 16 16 15 16 15 15 14 14 13 12 12 12 12 11 11 9 8 8 10 10 10 11 11 11 11 10 10 11 13 16 20 22 22 23 24 25 26 27 28 28 29 29 29 29 29 30 30 29 29 29 28 29 29 27 26 26 27 27 27 28 28 27 27 26 25 25 26
21 20 20 19 18 17 16 16 15 15 15 15 14 14 13 13 12 11 11 11 11 10 8 7 6 7 8 9 8 9 9 9 10 10 12 14 16 19 20 21 21 23 24 25 26 27 27 27 27 28 28 27 27 27 28 28 28 28 28 28 27 26 25 25 25 26 27 27 26 25 24 24 24 25
20 20 19 18 17 17 16 16 15 14 14 14 14 14 13 13 12 12 11 11 10 9 8 7 5 4 5 7 7 7 8 9 10 11 13 14 15 18 19 20 21 22 23 24 25 25 26 26 27 27 27 26 25 25 26 27 28 27 27 27 26 26 24 24 24 25 26 26 25 24 24 24 24 23
20 20 19 18 17 17 16 16 15 14 14 14 14 14 13 13 13 12 12 11 10 9 8 7 6 5 4 5 7 7 8 9 11 12 13 14 15 16 17 19 20 21 22 23 24 25 25 26 27 27 26 25 25 25 25 26 27 27 27 27 26 24 24 23 24 25 24 23 24 24 23 23 23 22
20 20 19 18 17 17 16 16 15 15 14 13 13 13 13 13 13 13 12 11 10 9 8 8 7 6 5 5 6 8 8 9 11 13 14 15 15 16 16 18 19 20 21 22 23 24 25 26 26 26 26 25 25 24 24 24 25 26 27 27 25 23 23 23 24 24 22 22 22 22 21 21 21 21
20 20 19 18 17 16 16 15 15 14 14 13 13 13 13 13 13 12 11 10 10 9 8 8 8 7 7 7 7 8 9 10 11 13 14 15 16 17 17 18 19 20 21 22 23 24 25 25 25 25 26 25 24 24 24 24 24 24 26 27 25 23 22 23 23 23 22 21 20 20 19 19 19 19
20 19 19 18 17 16 15 15 14 14 13 13 13 13 13 12 12 12 11 10 10 9 8 8 8 8 8 8 8 9 10 11 12 13 14 15 17 18 18 18 19 20 21 22 23 24 24 25 26 27 27 26 24 23 23 23 23 24 25 26 25 23 22 22 22 22 22 21 20 19 18 18 18 18
20 19 19 17 16 15 14 14 13 13 12 12 12 12 12 12 11 11 11 10 9 8 7 7 7 7 7 7 8 9 11 12 13 14 15 16 17 18 19 19 19 20 21 22 23 23 23 25 27 28 27 25 24 24 24 23 23 23 24 24 24 22 21 21 21 21 20 20 19 19 18 18 18 18
19 19 18 18 16 15 14 13 12 12 11 11 11 11 11 10 10 10 9 8 7 6 6 6 6 6 6 6 6 7 10 11 13 14 15 16 17 19 19 19 19 20 21 22 23 24 24 25 26 27 26 25 25 25 24 23 22 24 24 23 22 21 20 20 21 21 20 19 19 18 18 18 17 16
19 18 18 17 16 14 13 12 11 10 10 10 10 10 10 9 8 7 6 6 5 4 4 4 4 4 4 4 4 5 7 10 13 14 16 17 18 19 20 20 21 22 23 23 24 25 25 25 26 26 26 25 25 25 23 22 23 24 24 23 22 21 19 19 20 20 19 18 17 16 17 17 16 16
19 18 17 17 16 14 12 11 10 9 9 9 9 9 8 7 6 5 5 4 3 2 3 3 3 2 1 1 3 4 6 9 13 15 16 17 19 20 21 21 22 23 24 24 24 25 25 24 25 26 25 25 25 24 22 22 23 25 24 23 23 21 20 19 19 19 18 17 16 15 16 16 15 15
18 18 17 16 15 13 11 10 9 8 8 8 8 7 7 6 5 4 3 3 2 2 2 2 2 2 3 3 4 5 7 9 13 16 18 18 20 22 22 22 22 23 24 24 24 24 24 24 25 25 24 24 24 23 22 23 25 25 24 23 22 21 20 20 19 18 17 16 15 15 15 15 14 14
Wind_Direction
271 271 271 270 270 269 269 269 268 268 268 268 267 267 267 266 266 265 264 263 262 262 262 262 261 261 260 260 260 259 259 259 259 259 258 258 258 258 257 257 256 255 254 254 253 253 253 252 252 252 252 251 251 251 250 249 249 248 247 247 248 248 248 247 247 247 246 246 246 246 246 246 246 246
271 271 271 270 270 269 269 269 268 268 268 267 267 267 266 266 266 266 265 264 262 262 262 262 261 261 261 261 260 260 259 259 259 259 258 257 257 258 257 257 256 255 255 255 254 253 253 252 252 252 252 251 251 250 250 249 248 248 247 247 247 247 246 247 247 246 246 246 246 246 246 246 246 246
272 271 271 271 270 270 269 269 269 268 268 267 267 266 266 265 265 265 266 265 263 262 263 262 261 261 261 261 261 260 259 259 259 258 258 257 257 257 257 257 256 255 255 255 254 253 252 252 251 251 251 251 251 250 249 249 248 248 247 247 246 246 246 245 245 245 245 245 245 245 245 245 245 246
273 272 272 271 271 271 270 270 269 269 268 268 267 266 266 265 265 265 265 265 264 263 263 263 262 262 262 262 261 260 259 259 259 258 258 257 257 257 256 256 256 255 255 254 254 253 252 251 251 250 250 250 250 250 249 248 248 248 247 246 246 246 245 245 244 244 244 244 244 244 244 244 245 245
274 273 273 272 272 272 271 271 270 269 269 268 267 267 266 265 265 265 265 265 265 264 263 263 263 263 263 262 261 261 260 259 259 258 258 257 257 256 256 255 255 255 254 254 253 253 252 251 250 250 249 249 250 250 249 248 247 247 247 246 246 245 245 245 244 244 243 243 243 243 243 243 244 245
275 275 274 273 273 272 272 271 271 270 269 269 268 267 267 266 265 265 265 265 265 264 263 263 263 263 262 262 261 261 260 260 259 258 258 257 256 256 255 255 255 254 254 254 253 252 252 251 250 249 249 248 248 249 249 248 247 246 246 246 245 245 245 245 244 244 243 242 242 242 242 242 243 243
276 275 275 274 274 273 272 271 271 270 269 269 268 267 267 266 266 265 265 265 265 265 264 264 263 263 262 262 261 261 260 260 259 258 258 257 257 256 255 254 254 254 254 254 253 252 252 251 250 249 248 248 247 247 247 247 246 246 246 246 245 245 244 244 244 243 242 242 241 241 241 241 241 242
277 276 275 275 274 273 272 272 271 270 270 269 268 267 267 266 266 265 265 265 265 265 265 264 263 263 263 262 261 261 261 260 259 259 258 257 256 256 255 254 254 253 253 253 253 252 251 251 250 249 248 248 247 246 246 246 246 245 246 246 245 245 244 244 243 242 242 241 241 241 240 240 241 241
277 276 276 275 274 274 273 272 272 271 270 269 269 268 267 266 266 265 264 264 264 264 264 264 264 263 263 263 262 261 261 261 260 259 258 257 256 256 255 254 254 253 252 252 252 252 251 250 250 249 248 247 246 246 246 245 245 245 244 245 245 244 244 243 243 242 241 240 240 240 239 239 240 241
278 277 277 276 275 274 274 273 273 272 271 270 269 269 268 267 266 266 265 264 264 264 264 264 264 263 263 263 262 261 261 261 261 260 259 258 257 256 255 254 253 253 252 251 251 251 251 250 249 249 248 247 246 245 245 245 244 244 243 243 243 243 243 242 242 241 240 240 239 239 239 239 240 241
279 278 278 277 276 275 274 274 273 272 272 271 270 269 268 268 267 266 265 265 265 264 264 264 263 263 262 262 262 261 261 261 261 260 260 259 258 257 256 254 253 252 252 251 250 250 250 249 248 248 247 246 245 245 244 244 244 243 243 242 242 242 242 241 241 240 240 240 240 240 240 240 240 241
280 279 279 278 277 276 275 274 274 273 272 271 270 269 268 268 267 266 266 265 265 264 264 264 264 263 262 262 262 262 261 260 260 260 259 258 257 257 256 255 253 252 252 251 249 249 249 248 248 247 246 245 244 244 243 243 244 243 243 242 242 242 241 240 240 240 240 240 240 241 241 241 241 242
282 281 280 279 278 277 276 275 274 273 272 271 270 269 268 268 267 266 265 265 264 264 264 263 263 263 262 262 262 261 261 260 260 260 259 258 258 257 256 255 253 252 251 251 250 248 247 247 247 246 245 244 243 242 242 242 243 243 242 242 241 241 241 240 240 240 240 241 241 241 242 242 242 243
284 283 282 280 279 278 276 275 274 273 272 271 270 269 268 267 266 266 265 264 264 263 263 263 263 262 262 262 262 261 261 261 260 259 259 259 258 258 256 255 254 252 251 251 250 248 247 246 246 245 244 243 241 241 241 241 241 242 242 241 241 241 241 240 240 240 240 241 241 242 242 243 243 243
286 284 283 282 280 279 278 277 275 274 273 272 271 270 268 267 265 265 264 264 263 263 262 262 262 262 262 262 262 261 261 261 260 259 259 258 258 257 256 255 253 252 250 250 250 249 247 246 245 244 243 242 241 240 240 240 240 241 241 240 240 240 240 240 240 240 240 241 241 242 242 243 243 243
287 286 285 284 282 281 280 278 277 276 274 273 272 271 269 267 266 264 263 263 262 262 263 263 262 262 263 263 262 262 261 261 260 259 258 258 257 256 256 255 253 251 250 249 249 248 246 245 244 243 242 242 241 240 239 239 239 240 240 239 239 239 239 240 240 240 240 240 241 241 242 242 243 243
288 288 286 285 284 283 282 281 279 278 277 275 274 272 270 268 267 265 264 263 263 263 263 263 263 263 263 263 262 262 262 261 260 259 259 258 257 256 255 254 253 251 249 248 247 247 246 245 244 243 241 240 240 239 238 238 238 238 238 238 238 238 239 239 239 240 240 240 241 241 241 242 242 243
290 289 287 286 285 285 284 283 282 281 279 277 276 273 271 269 267 266 265 265 265 264 263 263 263 263 263 263 263 263 262 261 260 259 259 258 257 256 255 254 253 251 248 247 246 246 244 244 244 243 240 239 239 238 237 236 237 237 237 238 238 238 238 239 239 239 240 241 241 241 241 242 242 242
292 290 289 288 287 287 286 285 284 283 281 279 277 275 272 270 268 267 267 266 266 266 265 265 264 264 264 264 264 263 262 261 260 260 259 258 257 257 256 254 253 251 248 246 245 245 243 242 243 243 240 238 237 236 235 236 236 236 236 237 237 237 237 238 238 239 240 240 241 241 241 242 242 242
293 292 291 290 289 288 288 287 286 284 282 280 278 276 274 271 270 269 269 268 267 267 267 266 266 265 265 264 264 263 262 261 261 260 259 257 257 256 256 254 252 250 248 245 243 243 242 241 242 242 240 237 235 235 234 234 234 234 235 235 235 235 236 237 237 238 239 240 240 241 241 241 241 242
295 294 294 293 292 291 290 289 287 285 283 281 279 278 276 274 272 271 271 270 269 268 268 267 266 266 265 264 263 263 262 261 260 258 256 255 255 254 254 253 252 250 247 244 242 241 240 240 240 241 239 236 234 233 232 233 233 233 233 233 234 235 236 236 237 238 239 240 240 240 241 241 241 241
298 297 296 294 294 293 292 290 288 286 284 282 280 279 277 275 273 273 272 271 270 269 268 268 267 267 266 265 264 263 262 260 258 255 254 254 253 251 251 251 251 249 246 243 240 239 239 238 238 238 236 234 232 231 231 232 232 232 232 232 233 235 236 237 238 239 239 240 240 240 240 241 241 241
300 299 297 296 295 295 294 292 290 288 285 283 282 280 278 276 274 274 273 272 271 269 268 268 268 267 267 266 265 264 263 261 257 254 253 252 251 250 248 248 248 247 245 240 237 237 236 236 236 235 232 230 230 230 229 230 230 231 232 233 234 235 236 237 238 239 239 239 240 240 240 240 240 240
302 301 299 299 298 297 297 295 293 290 288 286 284 282 280 277 276 276 274 272 270 269 268 267 267 267 267 267 266 264 264 261 257 255 253 251 250 249 247 246 245 245 242 237 233 233 234 233 233 232 229 228 229 228 228 229 229 230 232 233 233 235 236 237 238 238 238 239 239 239 239 239 239 239
303 302 302 302 302 301 300 298 295 293 291 289 286 284 282 279 278 277 275 272 270 269 268 268 268 268 268 267 265 264 262 260 257 255 253 250 248 247 246 244 243 242 239 234 231 231 231 230 230 229 227 227 228 228 228 229 229 231 232 232 232 233 235 236 236 236 236 237 238 238 238 238 238 238
304 303 304 304 304 302 300 299 297 296 294 292 290 287 285 283 281 279 276 273 271 269 268 268 269 270 269 266 263 262 260 258 255 254 252 250 248 246 244 242 240 238 234 230 228 229 228 228 227 225 225 226 227 228 228 229 230 231 231 231 231 232 233 234 234 233 233 235 236 236 237 237 237 237
306 306 306 306 305 303 302 301 300 300 299 297 296 294 292 290 287 283 279 275 272 269 268 269 270 270 268 264 261 259 257 256 254 252 251 250 247 245 243 239 237 235 230 226 225 226 226 226 226 226 226 226 227 227 227 228 230 230 229 229 229 230 230 231 231 230 231 232 234 234 235 236 237 237
306 306 306 306 307 306 305 304 303 303 303 301 299 299 297 295 292 288 283 279 275 271 269 267 267 267 265 261 257 256 255 255 254 252 251 250 247 244 241 236 233 231 226 223 224 224 224 224 225 225 226 225 225 225 225 226 227 226 226 227 227 227 228 228 228 227 228 230 231 232 233 235 236 236
307 307 308 309 309 309 307 305 305 304 303 302 302 302 300 297 295 292 289 285 280 274 269 265 264 264 261 256 255 257 257 257 255 252 250 248 246 243 238 232 228 225 221 219 221 222 222 223 223 223 224 223 222 222 223 224 223 223 224 225 225 225 225 225 224 225 226 228 229 230 231 233 234 235
309 310 311 312 311 309 307 307 307 306 306 306 307 307 306 304 301 299 297 295 289 281 272 265 261 258 255 254 256 258 258 256 253 250 246 242 240 238 233 226 222 220 217 216 218 220 220 221 221 221 222 221 220 220 221 220 220 221 222 222 223 223 223 222 222 223 225 227 228 229 230 231 232 233
312 313 314 314 311 309 308 308 309 311 312 311 311 313 313 312 310 307 306 304 301 292 279 266 257 252 250 252 255 256 256 255 253 249 243 236 231 227 223 218 216 214 212 213 216 217 218 219 219 219 219 218 217 218 218 217 217 218 218 218 220 221 220 219 220 221 223 224 225 226 228 230 230 231
314 315 315 314 312 311 310 311 313 316 316 314 314 317 317 316 315 317 317 314 313 308 292 269 254 248 246 249 252 255 256 256 255 251 240 229 220 216 213 209 207 206 206 208 211 213 214 215 215 215 215 214 214 214 214 213 214 215 215 215 217 217 215 215 216 218 219 220 222 223 226 227 226 227
316 316 316 315 314 312 312 313 316 319 319 317 317 319 321 320 321 326 328 326 322 318 305 277 253 245 244 248 251 254 256 256 253 244 229 216 209 205 202 200 199 199 201 203 205 207 208 209 210 210 210 210 210 210 210 210 211 212 213 213 213 213 212 212 212 214 215 217 218 219 220 220 221 222
318 316 316 316 314 313 313 314 317 320 321 320 319 321 324 324 323 325 331 334 332 326 315 294 265 248 244 246 251 254 253 247 235 219 206 200 195 193 192 193 195 197 199 201 202 203 203 204 205 206 206 206 207 207 208 208 208 209 209 209 208 208 208 208 209 211 212 211 211 211 212 215 217 219
320 318 317 316 314 313 312 313 316 319 321 321 320 321 323 324 323 322 324 329 332 332 328 320 294 262 246 242 246 247 238 225 214 204 197 193 190 189 191 193 196 198 200 201 201 201 201 201 201 201 200 201 202 203 204 205 205 205 205 205 204 203 204 206 208 208 206 205 206 207 209 212 214 216
324 323 320 317 315 313 311 312 313 315 317 319 319 320 321 321 320 319 318 320 323 324 325 326 320 293 257 237 231 228 217 209 204 199 195 194 192 193 195 197 198 199 200 200 199 198 197 197 195 194 195 196 197 198 200 200 200 201 201 201 200 200 202 204 204 202 201 203 206 207 208 209 211 213
327 326 323 320 317 314 311 310 310 311 313 315 316 317 318 317 315 313 313 314 314 315 316 315 310 303 283 250 234 224 214 208 203 198 195 193 191 192 194 195 196 196 197 197 196 194 193 192 190 190 191 193 194 195 196 196 197 198 197 196 196 199 201 201 199 197 199 202 205 206 206 207 209 213
329 328 326 322 319 315 313 311 309 308 309 311 312 313 313 312 311 309 309 309 309 309 310 306 298 291 285 268 246 230 220 214 208 203 198 194 191 190 191 191 191 191 191 191 190 190 189 189 187 187 189 190 191 191 192 193 194 194 193 192 194 197 198 197 195 195 197 199 200 201 203 205 207 209
331 330 327 324 321 317 315 313 310 309 308 308 308 309 309 308 307 306 305 306 306 305 303 301 295 286 279 271 255 236 225 218 211 207 203 198 194 191 189 189 188 187 186 187 188 187 187 187 186 185 186 186 186 186 187 187 188 188 188 190 192 193 192 192 192 194 195 196 197 198 199 201 201 202
332 332 330 327 323 319 317 315 313 311 311 310 308 307 306 305 304 303 302 302 303 302 299 297 295 287 277 270 257 239 226 217 212 208 205 200 195 191 188 189 188 186 185 186 186 185 185 185 185 185 184 184 184 183 182 182 182 183 184 187 189 189 189 191 190 190 191 193 195 196 196 196 197 199
334 334 333 331 327 322 319 316 315 314 314 314 313 311 309 307 305 303 301 301 299 297 294 294 293 287 276 268 259 242 227 217 210 205 202 199 194 190 188 187 186 185 183 183 182 182 182 182 182 183 182 182 181 180 179 180 180 180 181 183 185 186 189 190 189 187 187 190 192 193 193 194 196 197
335 335 334 333 331 326 322 318 317 316 317 318 317 316 315 313 309 305 302 301 298 295 293 293 292 287 278 268 256 240 225 213 203 197 195 193 189 186 185 184 182 181 179 177 177 177 176 176 176 178 178 178 178 178 179 180 179 177 177 179 180 181 182 183 182 181 183 186 189 191 192 193 193 195
337 338 337 335 334 331 327 323 320 319 320 321 323 322 321 318 316 313 311 309 306 302 302 302 299 294 285 267 243 225 213 202 192 186 185 184 182 181 179 178 177 175 173 171 171 171 171 171 172 173 173 174 176 177 179 179 177 174 174 176 177 176 174 173 172 173 176 181 185 187 189 190 192 195
339 340 340 338 337 335 333 330 327 325 326 327 329 330 331 330 328 328 329 330 329 327 327 328 325 318 295 233 194 187 186 183 179 176 174 174 174 172 170 169 169 170 169 167 166 166 168 170 170 170 171 172 174 176 178 178 175 173 173 173 174 172 171 170 170 171 174 178 180 180 182 186 188 188
341 342 343 342 340 340 340 339 337 335 336 337 338 341 345 346 347 352 5 15 18 13 10 18 42 69 89 113 134 149 159 165 168 168 167 164 163 163 162 162 163 165 165 165 164 164 167 168 169 169 171 172 173 176 176 174 173 172 171 170 170 169 168 169 170 171 173 175 174 173 174 176 177 175